Terminal Aerodrome Forecast
Issued by NWS Melbourne, FL

Home | Current Version | Previous Version | Text Only | Print | Product List | Glossary On
Versions: 1 2 3 4 5 6 7 8 9 10 11 12 13 14 15 16 17 18 19 20 21 22 23 24 25 26 27 28
000
FTUS42 KMLB 220000 AAA
TAFMCO
TAF AMD
KMCO 220005Z 2200/2224 13006KT P6SM VCTS FEW040CB SCT100 OVC250
      TEMPO 2200/2201 VRB15G28KT
     FM220200 15004KT P6SM FEW050 SCT250
     FM220600 VRB02KT P6SM FEW250
     FM221400 23005KT P6SM FEW040=

USA.gov is the U.S. government's official web portal to all federal, state and local government web resources and services.